Location: Bois de la Silve
(44.4667°N, 6.7833°E)
Time: 03:07:06
(UTC+00:00)

Cosmos 1536 - Pass Details

Date: 14 July 2020
Orbit: 539 x 559 km, 82.5° (Epoch: 06 August)

Event Time Altitude Azimuth Distance (km) Brightness Sun altitude
Exits shadow 02:03:03 30° 195° (SSW) 1,010 3.6 -16.2°
Maximum altitude 02:04:59 80° 279° (W) 572 2.8 -16.0°
Drops below altitude 10° 02:09:03 10° 6° (N) 1,847 6.4 -15.5°
Sets 02:11:14 0° 8° (N) 2,744 7.5 -15.3°
